Location: Ailly
(50.0793°N, 1.9944°E)
Time: 20:11:50
(UTC+00:00)

Cosmos 1763 Rocket - Pass Details

Date: 15 January 2026
Orbit: 729 x 773 km, 74.0° (Epoch: 14 February)

Event Time Altitude Azimuth Distance (km) Brightness Sun altitude
Exits shadow 06:34:14 - 332° (NNW) 2,573 5.8 -11.0°
Reaches altitude 10° 06:35:06 10° 331° (NNW) 2,238 5.5 -10.9°
Maximum altitude 06:40:06 63° 251° (WSW) 816 3.4 -10.1°
Drops below altitude 10° 06:45:05 10° 171° (S) 2,235 6.4 -9.4°
Sets 06:47:26 0° 168° (SSE) 3,159 7.2 -9.0°
